Location: Aufkirchen
(47.9603°N, 11.3653°E)
Time: 06:16:52
(UTC+01:00)

Transit 2A - Pass Details

Date: 29 November 2020
Orbit: 599 x 960 km, 66.7° (Epoch: 25 January)

Event Time Altitude Azimuth Distance (km) Brightness Sun altitude
Rises 03:25:30 0° 316° (NW) 3,264 - -41.9°
Reaches altitude 10° 03:28:27 10° 302° (WNW) 2,261 - -41.4°
Maximum altitude 03:32:19 22° 252° (WSW) 1,506 - -40.8°
Drops below altitude 10° 03:35:56 10° 202° (SSW) 2,083 - -40.2°
Sets 03:38:33 0° 187° (S) 2,939 - -39.8°
